Regional Weather Roundup
Issued by NWS

Home | Current Version | Previous Version | Graphics & Text | Print | Product List | Glossary On
Versions: 1 2 3 4 5 6 7 8 9 10 11 12 13 14 15 16 17 18 19 20 21 22 23 24 25 26 27
000
ASUS43 KDMX 180207
RWRIA

WEATHER ROUNDUP FOR IOWA
NATIONAL WEATHER SERVICE DES MOINES IA
900 PM CDT THU APR 17 2014

NOTE: "FAIR" INDICATES FEW OR NO CLOUDS BELOW 12,000 FEET WITH NO
SIGNIFICANT WEATHER AND/OR OBSTRUCTIONS TO VISIBILITY.

* - THESE STATIONS ARE NOT NWS STATIONS...THUS NOT UNDER NWS
QUALITY CONTROL.  THEY ALSO DO NOT REPORT WEATHER SUCH
AS PRECIPITATION OR FOG.

IAZ001>003-012>014-020>022-031>034-043>046-180300-
   NORTHWEST IOWA

CITY           SKY/WX    TMP DP  RH WIND       PRES   REMARKS
CARROLL *      CLOUDY    43  25  49 NE6       30.26S
CHEROKEE *     PTCLDY    43  27  52 NE6       30.27R
DENISON *      CLEAR     43  25  49 E3        30.25R
LE MARS *      CLOUDY    46  27  46 E5        30.26R
ORANGE CITY *  CLOUDY    45  27  49 NE5       30.26R
SHELDON *      MOCLDY    36  28  75 E7        30.26R WCI  30
SIOUX CITY     MOCLDY    48  24  39 E5        30.25S
SPENCER        MOCLDY    38  29  70 NE7       30.28R WCI  33
STORM LAKE *   PTCLDY    41  28  60 NE8       30.27S
$$

IAZ055>058-069>071-079>083-090>094-180300-
   SOUTHWEST IOWA

CITY           SKY/WX    TMP DP  RH WIND       PRES   REMARKS
ATLANTIC *     MOCLDY    39  27  60 N5        30.26R
AUDUBON *      CLEAR     39  23  52 CALM      30.27S
CLARINDA *     CLEAR     41  30  65 CALM      30.28R
COUNCIL BLFS * PTCLDY    48  25  40 SE3       30.25R
CRESTON *      CLEAR     45  28  53 CALM      30.27R
HARLAN  *      PTCLDY    41  25  52 CALM      30.29R
LAMONI         CLEAR     49  31  49 CALM      30.26R
RED OAK *      CLEAR     41  30  65 CALM      30.26S
SHENANDOAH *   CLEAR     43  28  56 CALM      30.27R
$$

IAZ047>049-059>061-072>074-084-180300-
   CENTRAL IOWA

CITY           SKY/WX    TMP DP  RH WIND       PRES   REMARKS
AMES           CLEAR     42  29  59 NE6       30.28R
ANKENY *       CLEAR     43  30  61 NE6       30.28R
CHARITON *     PTCLDY    46  32  57 CALM      30.27S
DES MOINES     CLEAR     50  29  44 E6        30.28R
GRINNELL*      CLEAR     39  30  70 NE6       30.29R WCI  35
KNOXVILLE *    CLEAR     46  30  53 SE3       30.27S
MARSHALLTOWN   CLEAR     37  31  78 NE8       30.29R WCI  31
NEWTON *       CLEAR     43  30  61 NE7       30.29R
PELLA *        CLEAR     45  32  61 CALM      30.29S
PERRY *          N/A     46  27  46 NE6       30.28R
$$

IAZ004>006-015-016-023>025-035-036-180300-
   NORTH CENTRAL IOWA

CITY           SKY/WX    TMP DP  RH WIND       PRES   REMARKS
ALGONA *       CLEAR     37  30  75 NE6       30.30R WCI  33
CLARION *      CLEAR     34  30  86 NE7       30.30R WCI  28
ESTHERVILLE    MOCLDY    35  30  82 NE5       30.28R WCI  31
FORT DODGE *   CLEAR     39  28  65 NE7       30.30R WCI  34
MASON CITY     CLEAR     31  28  89 N6        30.31R WCI  25
FOREST CITY *  CLEAR     32  30  93 CALM      30.30R
IOWA FALLS *     N/A     39  30  70 N5        30.31R
$$

IAZ007>011-017>019-026>030-037>042-050>054-066-180300-
   NORTHEAST IOWA

CITY           SKY/WX    TMP DP  RH WIND       PRES   REMARKS
CEDAR RAPIDS   CLEAR     41  30  65 NW7       30.27R
CHARLES CITY * PTCLDY    34  30  86 N7        30.31R WCI  28
CLINTON *      MOCLDY    43  32  65 NW7       30.29R
DECORAH *      CLOUDY    36  30  80 N5        30.29R WCI  32
DUBUQUE          N/A     39  32  76 N7        30.26R WCI  34
MONTICELLO *   CLEAR     41  34  75 N6        30.27R
OELWEIN *      CLEAR    N/A N/A N/A N6        30.30R
WATERLOO       CLEAR     36  30  79 N6        30.29R WCI  31
$$

IAZ064-065-067-068-078-180300-
   EAST CENTRAL IOWA

CITY           SKY/WX    TMP DP  RH WIND       PRES   REMARKS
DAVENPORT      MOCLDY    45  34  65 W8        30.28R
IOWA CITY      CLEAR     42  32  67 CALM      30.29R
MT. PLEASANT * MOCLDY    48  32  53 CALM      30.28R
MUSCATINE *    CLEAR     45  34  65 NW5       30.28R
QUAD CITIES    CLOUDY    46  34  62 SW3       30.27R
$$

IAZ062-063-075>077-085>089-095>099-180300-
   SOUTHEAST IOWA

CITY           SKY/WX    TMP DP  RH WIND       PRES   REMARKS
BURLINGTON     CLOUDY    47  37  68 SW5       30.27R
FAIRFIELD *    CLEAR     43  32  65 NW6       30.28S
FORT MADISON * CLEAR     46  37  71 S5        30.28S
KEOKUK *       CLEAR     48  36  61 CALM      30.27S
OSKALOOSA *      N/A     45  32  61 CALM      30.29R
CENTERVILLE *  CLEAR     45  32  61 NE5       30.29R
OTTUMWA        PTCLDY    45  30  55 N6        30.28R
WASHINGTON *   CLEAR     43  32  65 N6        30.28R
$$

ABBREVIATIONS USED IN REMARKS
   TC - TEMPERATURES IN CELSIUS
  WCI - WIND CHILL INDEX
   HX - HEAT INDEX
  VSB - VISIBILITY
$$




USA.gov is the U.S. government's official web portal to all federal, state and local government web resources and services.